Printer-friendly version

IAU Minor Planet Center

Minor Planet Center

MPEC 2006-Q15 : 2006 QY5

The following Minor Planet Electronic Circular may be linked-to from your own Web pages, but must not otherwise be redistributed electronically.


Read MPEC 2006-Q14 Read MPEC 2006-Q16


M.P.E.C. 2006-Q15                                Issued 2006 Aug. 21, 15:37 UT

     The Minor Planet Electronic Circulars contain information on unusual
         minor planets and routine data on comets.  They are published
   on behalf of Commission 20 of the International Astronomical Union by the
          Minor Planet Center, Smithsonian Astrophysical Observatory,
                          Cambridge, MA 02138, U.S.A.

                  Supported in part by the Brinson Foundation
                  Supported in part by the TABASGO Foundation
             Prepared using the Tamkin Foundation Computer Network

                              MPC@CFA.HARVARD.EDU
          URL http://cfa-www.harvard.edu/iau/mpc.html  ISSN 1523-6714

                                   2006 QY5

Observations:
     K06Q05Y* C2006 08 19.27892 22 50 16.45 -07 53 49.1          20.5 V EQ015691
     K06Q05Y  C2006 08 19.29921 22 50 16.72 -07 53 53.6          20.3 V EQ015691
     K06Q05Y  C2006 08 19.31656 22 50 16.97 -07 53 57.0          20.4 V EQ015691
     K06Q05Y  C2006 08 19.38769 22 50 17.92 -07 54 11.8          20.5 V EQ015291
     K06Q05Y  C2006 08 19.39144 22 50 17.98 -07 54 12.6          20.2 V EQ015291
     K06Q05Y  C2006 08 19.39721 22 50 18.04 -07 54 13.7          20.2 V EQ015291
     K06Q05Y HC2006 08 20.29821 22 50 38.81 -07 57 25.1                 EQ015291
     K06Q05Y HC2006 08 20.30359 22 50 38.94 -07 57 26.0                 EQ015291
     K06Q05Y HC2006 08 20.30899 22 50 38.99 -07 57 27.7                 EQ015291
     K06Q05Y  C2006 08 20.99885 22 50 53.54 -08 00 05.8          19.6 R EQ015620
     K06Q05Y  C2006 08 21.01898 22 50 53.80 -08 00 10.8          19.4 R EQ015620
     K06Q05Y  C2006 08 21.22691 22 50 58.73 -08 00 58.3          20.0 R EQ015734
     K06Q05Y  C2006 08 21.23569 22 50 58.81 -08 01 00.2          20.1 R EQ015734
     K06Q05Y  C2006 08 21.24133 22 50 59.30 -08 00 58.5                 EQ015291
     K06Q05Y  C2006 08 21.24447 22 50 58.94 -08 01 02.2          20.2 R EQ015734
     K06Q05Y  C2006 08 21.24676 22 50 59.37 -08 00 59.9                 EQ015291
     K06Q05Y  C2006 08 21.25228 22 50 59.45 -08 01 01.1                 EQ015291
     K06Q05Y  C2006 08 21.31550 22 51 00.20 -08 01 18.5          19.6 R EQ015682
     K06Q05Y  C2006 08 21.33701 22 51 00.45 -08 01 23.0          20.1 R EQ015682

Observer details:
291 LPL/Spacewatch II.  Observer T. H. Bressi.  1.8-m f/2.7 reflector + CCD.
620 Observatorio Astronomico de Mallorca.  Observers D. Bektesevic, A. Cikota,
    S. Cikota, A. Bonaca, J. O. Ku, E. O. Jeong, R. Stoss.  0.30-m f/9
    Schmidt-Cassegrain + CCD.
682 Kanab.  Observer E. Sheridan.  0.36-m f/5.5 Schmidt-Cassegrain + CCD.
691 Steward Observatory, Kitt Peak.  Observer T. H. Bressi.  0.9-m f/3
    reflector + CCD.
734 Farpoint Observatory.  Observer G. Hug.  Measurer D. Tibbets.  0.7-m
    reflector + CCD.

Orbital elements:
2006 QY5                                                 Earth MOID = 0.1950 AU
Epoch 2006 Sept. 22.0 TT = JDT 2454000.5                MPC
M 347.75352              (2000.0)            P               Q
n   0.37717493     Peri.  238.02873     +0.91365240     -0.40615492
a   1.8971755      Node   145.92656     +0.38226730     +0.84453676
e   0.3726066      Incl.    1.70378     +0.13824254     +0.34899261
P   2.61           H   21.3           G   0.15           U   8
Residuals in seconds of arc
060819 691  0.0   0.1+    060820 291  0.5+  0.5+    060821 734  0.1+  0.1-
060819 691  0.3-  0.1-    060820 291  0.2+  0.0     060821 291  0.1-  0.0
060819 691  0.0   0.1+    060820 620  0.3-  0.3-    060821 291  0.1+  0.1+
060819 291  0.1+  0.1-    060821 620  0.1-  0.6-    060821 682  0.0   0.2-
060819 291  0.2+  0.1-    060821 734  0.3+  0.5-    060821 682  0.0   0.4+
060819 291  0.1-  0.1-    060821 734  0.2-  0.2-
060820 291  0.4-  0.2+    060821 291  0.1-  0.0

Ephemeris:
2006 QY5                 a,e,i = 1.90, 0.37, 2                   q = 1.1903
Date    TT    R. A. (2000) Decl.     Delta      r     Elong.  Phase     V
2006 08 13    22 47.54   -07 37.4    0.371    1.368   159.6    14.9    20.7
2006 08 23    22 51.56   -08 07.9    0.320    1.326   168.5     8.7    20.0
2006 09 02    22 54.34   -09 00.9    0.280    1.289   177.2     2.2    19.3
2006 09 12    22 57.30   -10 04.2    0.252    1.257   172.0     6.4    19.3
2006 09 22    23 02.12   -11 00.0    0.234    1.230   163.1    13.7    19.4
2006 10 02    23 10.72   -11 25.5    0.226    1.210   155.0    20.4    19.5
2006 10 12    23 24.25   -11 02.6    0.226    1.196   148.4    25.9    19.6
2006 10 22    23 42.55   -09 44.3    0.234    1.191   143.1    30.1    19.8
2006 11 01    00 04.80   -07 32.1    0.249    1.192   139.2    33.0    20.0
2006 11 11    00 29.55   -04 38.9    0.273    1.202   136.1    34.8    20.3
2006 11 21    00 55.38   -01 22.2    0.307    1.219   133.4    36.1    20.6
2006 12 01    01 21.49   +02 02.6    0.350    1.243   130.8    36.9    21.0
2006 12 11    01 47.31   +05 22.1    0.403    1.273   127.9    37.6    21.4
2006 12 21    02 12.64   +08 28.1    0.466    1.308   124.8    38.1    21.8

Gareth V. Williams           (C) Copyright 2006 MPC           M.P.E.C. 2006-Q15

Read MPEC 2006-Q14 Read MPEC 2006-Q16


Our Web policy. Index to the CBAT/MPC/ICQ pages.


Valid HTML 4.01!